Back to catalog

STARLINK-32453

AliveCommunicationsVLEO
NORAD 61671·PAYLOAD·🇺🇸 United States

Launched Oct 26, 2024 from Cape Canaveral Space Force Station

Loading…

Next Passes (next 24 hours)

TLE

FreshSource: CelesTrak SupGP

Epoch: Sep 15, 2026, 03:24 UTC

1 61671C 24193L   26258.14215278 -.00000903  00000+0 -29036-4 0  2588
2 61671  53.1570 290.1515 0001305  92.6141 314.4003 15.31709827    18

Track STARLINK-32453 in real time with AllMySat

Download on the App Store